| time (UTC) | temp F | wind direction | speed knots | gust knots | rain 1hr in | rain 24hr in | rain mn in | humidity % | barometer mb |
| 20260502163524 | 55 | 83 | 0.9 | 1.7 | 0.00 | 0.00 | 0.00 | 42 | 1023.3 |
| 20260502162544 | 55 | 71 | 0.9 | 2.6 | 0.00 | 0.00 | 0.00 | 42 | 1023.3 |
| 20260502161524 | 56 | 0.0 | 0.0 | 0.00 | 0.00 | 0.00 | 41 | 1023.3 | |
| 20260502160545 | 56 | 0.0 | 0.0 | 0.00 | 0.00 | 0.00 | 42 | 1023.3 | |
| 20260502151544 | 57 | 61 | 1.7 | 3.5 | 0.00 | 0.00 | 0.00 | 39 | 1023.3 |
| 20260502150525 | 57 | 40 | 1.7 | 2.6 | 0.00 | 0.00 | 0.00 | 38 | 1023.3 |
| 20260502130604 | 58 | 54 | 0.9 | 1.7 | 0.00 | 0.00 | 0.00 | 39 | 1023.9 |
| 20260502123544 | 56 | 56 | 0.9 | 2.6 | 0.00 | 0.00 | 0.00 | 42 | 1024.3 |
| 20260502122544 | 57 | 93 | 1.7 | 3.5 | 0.00 | 0.00 | 0.00 | 42 | 1024.2 |
| 20260502121524 | 58 | 51 | 1.7 | 3.5 | 0.00 | 0.00 | 0.00 | 39 | 1024.2 |
| 20260502120525 | 59 | 46 | 1.7 | 4.3 | 0.00 | 0.00 | 0.00 | 38 | 1024.2 |
| 20260502115524 | 57 | 77 | 0.9 | 2.6 | 0.00 | 0.00 | 0.00 | 39 | 1024.3 |
| 20260502114524 | 57 | 52 | 0.9 | 4.3 | 0.00 | 0.00 | 0.00 | 40 | 1024.4 |
| 20260502113524 | 56 | 28 | 1.7 | 4.3 | 0.00 | 0.00 | 0.00 | 40 | 1024.5 |
| 20260502112525 | 56 | 29 | 0.0 | 1.7 | 0.00 | 0.00 | 0.00 | 40 | 1024.6 |
| 20260502111525 | 56 | 62 | 0.9 | 6.1 | 0.00 | 0.00 | 0.00 | 41 | 1024.6 |
| 20260502110524 | 56 | 84 | 0.9 | 1.7 | 0.00 | 0.00 | 0.00 | 41 | 1024.6 |
| 20260502105525 | 55 | 48 | 0.9 | 4.3 | 0.00 | 0.00 | 0.00 | 42 | 1024.6 |
| 20260502104525 | 56 | 65 | 1.7 | 5.2 | 0.00 | 0.00 | 0.00 | 42 | 1024.6 |
| 20260502103524 | 57 | 46 | 0.9 | 1.7 | 0.00 | 0.00 | 0.00 | 43 | 1024.5 |
| 20260502102524 | 57 | 41 | 0.9 | 0.9 | 0.00 | 0.00 | 0.00 | 46 | 1024.5 |
| 20260502101545 | 56 | 79 | 0.9 | 1.7 | 0.00 | 0.00 | 0.00 | 47 | 1024.7 |
| 20260502100549 | 56 | 95 | 0.9 | 1.7 | 0.00 | 0.00 | 0.00 | 46 | 1024.7 |
| 20260502091525 | 56 | 0.0 | 0.0 | 0.00 | 0.00 | 0.00 | 45 | 1024.9 | |
| 20260502090525 | 56 | 0.0 | 0.0 | 0.00 | 0.00 | 0.00 | 50 | 1025.0 | |
| 20260502071526 | 50 | 0.0 | 0.0 | 0.00 | 0.00 | 0.00 | 69 | 1025.2 | |
| 20260502070525 | 50 | 45 | 0.0 | 0.9 | 0.00 | 0.00 | 0.00 | 70 | 1025.2 |
| 20260502065545 | 50 | 0.0 | 0.0 | 0.00 | 0.00 | 0.00 | 69 | 1025.2 | |
| 20260502064545 | 50 | 0.0 | 0.0 | 0.00 | 0.00 | 0.00 | 69 | 1025.1 | |
| 20260502063524 | 49 | 0.0 | 0.0 | 0.00 | 0.00 | 0.00 | 71 | 1025.0 | |
| 20260502062525 | 49 | 0.0 | 0.0 | 0.00 | 0.00 | 0.00 | 71 | 1025.0 | |
| 20260502061525 | 49 | 0.0 | 0.0 | 0.00 | 0.00 | 0.00 | 72 | 1024.9 | |
| 20260502060525 | 48 | 0.0 | 0.0 | 0.00 | 0.00 | 0.00 | 74 | 1024.9 | |
| 20260502055525 | 48 | 0.0 | 0.0 | 0.00 | 0.00 | 0.00 | 75 | 1024.8 | |
| 20260502054525 | 47 | 323 | 0.0 | 0.9 | 0.00 | 0.00 | 0.00 | 76 | 1024.8 |
| 20260502053525 | 47 | 341 | 0.0 | 0.9 | 0.00 | 0.00 | 0.00 | 76 | 1024.8 |
| 20260502052525 | 47 | 0.0 | 0.0 | 0.00 | 0.00 | 0.00 | 76 | 1024.7 | |
| 20260502051525 | 47 | 338 | 0.0 | 1.7 | 0.00 | 0.00 | 0.00 | 76 | 1024.6 |
| 20260502050524 | 47 | 0.0 | 0.0 | 0.00 | 0.00 | 0.00 | 76 | 1024.6 | |
| 20260502045525 | 47 | 0.0 | 0.0 | 0.00 | 0.00 | 0.00 | 75 | 1024.6 | |
| 20260502044525 | 46 | 340 | 0.0 | 1.7 | 0.00 | 0.00 | 0.00 | 76 | 1024.4 |
| 20260502043525 | 46 | 356 | 0.0 | 0.9 | 0.00 | 0.00 | 0.00 | 76 | 1024.4 |
| 20260502042525 | 46 | 0.0 | 0.0 | 0.00 | 0.00 | 0.00 | 77 | 1024.4 | |
| 20260502041525 | 45 | 0.0 | 0.0 | 0.00 | 0.00 | 0.00 | 77 | 1024.4 | |
| 20260502040524 | 45 | 0.0 | 0.0 | 0.00 | 0.00 | 0.00 | 78 | 1024.5 | |
| 20260502035525 | 45 | 0.0 | 0.0 | 0.00 | 0.00 | 0.00 | 78 | 1024.4 | |
| 20260502034517 | 45 | 358 | 0.0 | 1.7 | 0.00 | 0.00 | 0.00 | 78 | 1024.3 |
| 20260502033524 | 45 | 0.0 | 0.0 | 0.00 | 0.00 | 0.00 | 77 | 1024.4 | |
| 20260502032526 | 45 | 0.0 | 0.0 | 0.00 | 0.00 | 0.00 | 77 | 1024.2 | |
| 20260502031535 | 45 | 340 | 0.0 | 0.9 | 0.00 | 0.00 | 0.00 | 75 | 1024.2 |
| 20260502030528 | 45 | 0.0 | 0.0 | 0.00 | 0.00 | 0.00 | 75 | 1024.1 | |
| 20260502025527 | 45 | 0.0 | 0.0 | 0.00 | 0.00 | 0.00 | 75 | 1024.1 | |
| 20260502024526 | 46 | 0.0 | 0.0 | 0.00 | 0.00 | 0.00 | 74 | 1024.0 | |
| 20260502023525 | 46 | 0.0 | 0.0 | 0.00 | 0.00 | 0.00 | 73 | 1024.0 | |
| 20260502022526 | 46 | 0.0 | 0.0 | 0.00 | 0.00 | 0.00 | 73 | 1024.0 | |
| 20260502021533 | 46 | 0.0 | 0.0 | 0.00 | 0.00 | 0.00 | 73 | 1023.9 | |
| 20260502020525 | 46 | 356 | 0.9 | 1.7 | 0.00 | 0.00 | 0.00 | 74 | 1024.1 |
| 20260502015544 | 45 | 0.0 | 0.0 | 0.00 | 0.00 | 0.00 | 74 | 1024.1 | |
| 20260502014515 | 45 | 0.0 | 0.0 | 0.00 | 0.00 | 0.00 | 74 | 1024.1 | |
| 20260502013526 | 46 | 0.0 | 0.0 | 0.00 | 0.00 | 0.00 | 73 | 1024.1 | |
| 20260502012526 | 46 | 0.0 | 0.0 | 0.00 | 0.00 | 0.00 | 72 | 1024.1 | |
| 20260502011545 | 46 | 0.0 | 0.0 | 0.00 | 0.00 | 0.00 | 73 | 1024.1 | |
| 20260502010525 | 46 | 0.0 | 0.0 | 0.00 | 0.00 | 0.00 | 73 | 1024.1 | |
| 20260502005525 | 46 | 0.0 | 0.0 | 0.00 | 0.00 | 0.00 | 73 | 1024.3 | |
| 20260502004544 | 46 | 0.0 | 0.0 | 0.00 | 0.00 | 0.00 | 73 | 1024.3 | |
| 20260502003526 | 46 | 0.0 | 0.0 | 0.00 | 0.00 | 0.00 | 73 | 1024.3 | |
| 20260502002525 | 46 | 0.0 | 0.0 | 0.00 | 0.00 | 0.00 | 73 | 1024.3 | |
| 20260502001515 | 46 | 0.0 | 0.0 | 0.00 | 0.00 | 0.00 | 73 | 1024.2 | |
| 20260502000526 | 46 | 0.0 | 0.0 | 0.00 | 0.00 | 0.00 | 73 | 1024.3 | |
| 20260501235536 | 46 | 0.0 | 0.0 | 0.00 | 0.00 | 0.00 | 72 | 1024.3 | |
| 20260501234526 | 46 | 0.0 | 0.0 | 0.00 | 0.00 | 0.00 | 72 | 1024.3 | |
| 20260501233525 | 46 | 0.0 | 0.0 | 0.00 | 0.00 | 0.00 | 72 | 1024.2 | |
| 20260501232525 | 47 | 0.0 | 0.0 | 0.00 | 0.00 | 0.00 | 70 | 1024.2 | |
| 20260501231525 | 47 | 0.0 | 0.0 | 0.00 | 0.00 | 0.00 | 70 | 1024.2 | |
| 20260501230545 | 47 | 0.0 | 0.0 | 0.00 | 0.00 | 0.00 | 70 | 1024.2 | |
| 20260501225525 | 48 | 0.0 | 0.0 | 0.00 | 0.00 | 0.00 | 70 | 1024.4 | |
| 20260501224535 | 48 | 0.0 | 0.0 | 0.00 | 0.00 | 0.00 | 71 | 1024.4 | |
| 20260501223526 | 48 | 0.0 | 0.0 | 0.00 | 0.00 | 0.00 | 70 | 1024.5 | |
| 20260501222516 | 48 | 0.0 | 0.0 | 0.00 | 0.00 | 0.00 | 70 | 1024.6 | |
| 20260501221525 | 48 | 0.0 | 0.0 | 0.00 | 0.00 | 0.00 | 69 | 1024.6 | |
| 20260501220515 | 48 | 0.0 | 0.0 | 0.00 | 0.00 | 0.00 | 70 | 1024.6 | |
| 20260501215525 | 48 | 0.0 | 0.0 | 0.00 | 0.00 | 0.00 | 69 | 1024.6 | |
| 20260501214527 | 49 | 0.0 | 0.0 | 0.00 | 0.00 | 0.00 | 69 | 1024.6 | |
| 20260501213524 | 49 | 0.0 | 0.0 | 0.00 | 0.00 | 0.00 | 68 | 1024.6 | |
| 20260501212525 | 49 | 0.0 | 0.0 | 0.00 | 0.00 | 0.00 | 67 | 1024.6 | |
| 20260501211518 | 50 | 0.0 | 0.0 | 0.00 | 0.00 | 0.00 | 66 | 1024.6 | |
| 20260501210559 | 50 | 0.0 | 0.0 | 0.00 | 0.00 | 0.00 | 66 | 1024.5 | |
| 20260501205516 | 50 | 0.0 | 0.0 | 0.00 | 0.00 | 0.00 | 65 | 1024.5 | |
| 20260501204525 | 50 | 0.0 | 0.0 | 0.00 | 0.00 | 0.00 | 65 | 1024.5 | |
| 20260501203517 | 50 | 0.0 | 0.0 | 0.00 | 0.00 | 0.00 | 65 | 1024.5 | |
| 20260501202525 | 50 | 0.0 | 0.0 | 0.00 | 0.00 | 0.00 | 65 | 1024.5 | |
| 20260501201516 | 50 | 0.0 | 0.0 | 0.00 | 0.00 | 0.00 | 64 | 1024.4 | |
| 20260501200526 | 50 | 0.0 | 0.0 | 0.00 | 0.00 | 0.00 | 64 | 1024.4 | |
| 20260501195547 | 51 | 0.0 | 0.0 | 0.00 | 0.00 | 0.00 | 63 | 1024.3 | |
| 20260501194517 | 51 | 0.0 | 0.0 | 0.00 | 0.00 | 0.00 | 62 | 1024.3 | |
| 20260501193525 | 50 | 0.0 | 0.0 | 0.00 | 0.00 | 0.00 | 63 | 1024.3 | |
| 20260501192516 | 51 | 0.0 | 0.0 | 0.00 | 0.00 | 0.00 | 62 | 1024.3 | |
| 20260501191526 | 51 | 0.0 | 0.0 | 0.00 | 0.00 | 0.00 | 62 | 1024.3 | |
| 20260501190516 | 50 | 352 | 0.9 | 5.2 | 0.00 | 0.00 | 0.00 | 63 | 1024.4 |
| 20260501185525 | 51 | 333 | 1.7 | 7.0 | 0.00 | 0.00 | 0.00 | 56 | 1024.3 |
| 20260501184516 | 51 | 0.0 | 0.0 | 0.00 | 0.00 | 0.00 | 53 | 1024.1 | |
| 20260501183525 | 51 | 299 | 0.0 | 1.7 | 0.00 | 0.00 | 0.00 | 52 | 1024.0 |
| 20260501182515 | 52 | 0.0 | 0.0 | 0.00 | 0.00 | 0.00 | 51 | 1023.9 | |
| 20260501181516 | 52 | 323 | 0.9 | 1.7 | 0.00 | 0.00 | 0.00 | 49 | 1023.9 |
| 20260501180536 | 52 | 295 | 0.9 | 0.9 | 0.00 | 0.00 | 0.00 | 48 | 1023.9 |